Weather reports worldwide

Advertisment
Finisterre, Spain (8040): temperature & dewpoint: 12.01.2018 07:00:00 - 18.01.2018 07:00:00 (CET)Finisterre, Spain (8040): wind speed & gusts: 12.01.2018 07:00:00 - 18.01.2018 07:00:00 (CET)Finisterre, Spain (8040): wind direction: 12.01.2018 07:00:00 - 18.01.2018 07:00:00 (CET)Finisterre, Spain (8040): reduced air pressure: 12.01.2018 07:00:00 - 18.01.2018 07:00:00 (CET)Finisterre, Spain (8040): visibility: 12.01.2018 07:00:00 - 18.01.2018 07:00:00 (CET)Finisterre, Spain (8040): sunshine duration: 12.01.2018 07:00:00 - 18.01.2018 07:00:00 (CET)Finisterre, Spain (8040): precipitation: 12.01.2018 07:00:00 - 18.01.2018 07:00:00 (CET)
Date & Time tt [°C] td [°C] ff [km/h] ff [kn] fx [km/h] fx [kn] dd ppp [hPa] vv [km] sd [min] rr [mm]
18.01.2018 07:00:00 - - - - - - - - - - -
18.01.2018 06:00:00 9,5 7,0 13 7 29 15 NW 1026,4 2,5 0 0,0
18.01.2018 05:00:00 9,5 6,5 8 4 24 13 NNW 1026,7 2,2 0 0,0
18.01.2018 04:00:00 9,4 6,7 9 5 23 13 NW 1027,3 3,3 0 0,0
18.01.2018 03:00:00 9,2 6,2 10 6 23 12 NW 1027,7 3,7 0 0,0
18.01.2018 02:00:00 9,2 6,2 10 6 18 10 WNW 1028,4 1,9 0 0,0
18.01.2018 01:00:00 9,3 5,8 5 3 21 11 NNW 1029,1 2,3 0 -
18.01.2018 00:00:00 9,5 5,8 11 6 26 14 N 1029,4 2,3 0 0,0
17.01.2018 23:00:00 9,5 5,8 10 5 26 14 NNW 1029,8 2,2 0 0,0
17.01.2018 22:00:00 9,6 5,9 7 4 24 13 NW 1029,9 2,7 0 0,0
17.01.2018 21:00:00 9,5 5,5 11 6 23 12 NW 1029,9 6 0 0,0
17.01.2018 20:00:00 10,0 6,1 13 7 28 15 N 1029,5 3,3 0 0,0
17.01.2018 19:00:00 9,9 6,1 13 7 24 13 N 1029,7 3,9 0 -
17.01.2018 18:00:00 10,2 7,3 11 6 25 14 NNW 1029,7 2,2 0 0,0
17.01.2018 17:00:00 10,6 6,7 14 8 28 15 N 1029,8 2,0 28 0,0
17.01.2018 16:00:00 11,1 6,2 14 8 27 15 N 1029,9 3,2 27 0,0
17.01.2018 15:00:00 11,0 6,4 16 9 30 16 N 1030,5 5 0 0,0
17.01.2018 14:00:00 10,8 5,3 18 10 35 19 N 1031,1 7 0 0,0
17.01.2018 13:00:00 11,1 7,4 16 9 29 16 N 1031,6 3,3 5 -
17.01.2018 12:00:00 10,9 6,4 10 5 23 13 N 1032,0 2,2 33 0,0
17.01.2018 11:00:00 10,3 5,5 18 10 33 18 N 1031,6 3,7 4 0,0
17.01.2018 10:00:00 10,2 5,3 19 11 40 22 N 1031,1 4,1 0 0,0
17.01.2018 09:00:00 10,2 6,4 21 12 41 22 N 1030,7 4,4 0 0,0
17.01.2018 08:00:00 10,0 5,9 23 12 44 24 NNW 1030,2 6 0 0,0
17.01.2018 07:00:00 9,6 7,1 28 15 44 24 N 1030,1 5 0 -
17.01.2018 06:00:00 9,9 7,7 20 11 42 23 NNW 1030,1 3,2 0 0,0
17.01.2018 05:00:00 9,8 7,7 22 12 50 27 NNW 1030,1 4,8 0 0,0
17.01.2018 04:00:00 9,6 8,5 35 19 50 27 N 1030,2 8 0 0,0
17.01.2018 03:00:00 9,8 9,2 19 11 44 24 NNW 1029,7 6 0 0,0
17.01.2018 02:00:00 10,3 9,7 22 12 51 28 NNW 1029,9 7 0 0,0
17.01.2018 01:00:00 11,5 10,9 11 6 36 19 NW 1029,6 7 0 -
17.01.2018 00:00:00 11,6 11,0 19 11 35 19 NW 1029,2 0,3 0 0,0
16.01.2018 23:00:00 11,5 10,9 21 11 32 18 NW 1029,2 0,5 0 0,0
16.01.2018 22:00:00 11,2 10,5 19 10 40 22 WNW 1028,7 10 0 0,2
16.01.2018 21:00:00 11,5 10,9 21 11 40 22 NW 1028,7 0,9 0 0,0
16.01.2018 20:00:00 11,6 11,0 22 12 37 20 NW 1028,4 0,1 0 0,0
16.01.2018 19:00:00 11,6 11,0 20 11 41 22 WNW 1027,9 0,1 0 -
16.01.2018 18:00:00 11,6 11,0 26 14 36 19 W 1027,6 0,1 0 0,0
16.01.2018 17:00:00 11,7 11,1 31 17 39 21 W 1027,4 0,1 0 0,2
16.01.2018 16:00:00 11,7 11,1 26 14 36 19 W 1027,7 0,8 0 0,0
16.01.2018 15:00:00 11,8 11,2 22 12 36 19 W 1028,2 1,0 0 0,0
16.01.2018 14:00:00 11,8 11,2 27 15 36 19 W 1028,6 0,1 0 0,2
16.01.2018 13:00:00 11,8 11,2 24 13 34 18 WSW 1029,5 1,0 0 -
16.01.2018 12:00:00 11,7 11,1 24 13 32 18 WSW 1029,4 0,3 0 0,0
16.01.2018 11:00:00 11,7 11,1 20 11 31 17 WSW 1029,0 0,2 0 0,2
16.01.2018 10:00:00 11,2 10,5 23 12 32 18 W 1028,6 0,5 0 0,0
16.01.2018 09:00:00 11,1 10,5 22 12 37 20 WNW 1028,3 0,1 0 0,0
16.01.2018 08:00:00 10,9 10,3 23 12 35 19 W 1027,8 13 0 0,0
16.01.2018 07:00:00 11,4 10,8 21 12 30 16 W 1027,3 0,6 0 -
16.01.2018 06:00:00 11,6 11,0 23 12 32 17 W 1027,0 0,1 0 0,0
16.01.2018 05:00:00 11,4 10,8 22 12 33 18 W 1027,2 0,2 0 0,0
16.01.2018 04:00:00 11,6 11,0 21 12 31 17 W 1027,3 0,1 0 0,2
16.01.2018 03:00:00 11,6 11,0 25 14 36 19 W 1027,0 0,1 0 0,0
16.01.2018 02:00:00 11,8 11,2 23 13 39 21 WNW 1027,4 0,2 0 0,0
16.01.2018 01:00:00 11,9 11,3 27 15 38 20 WNW 1027,6 0,7 0 -
16.01.2018 00:00:00 12,1 11,4 32 17 42 23 W 1027,1 0,1 0 0,0
15.01.2018 23:00:00 12,2 11,6 31 17 46 25 W 1026,8 0,1 0 0,0
15.01.2018 22:00:00 12,3 11,7 31 17 45 24 W 1026,5 0,1 0 0,2
15.01.2018 21:00:00 12,3 11,7 28 15 40 21 W 1026,1 0,2 0 0,0
15.01.2018 20:00:00 12,2 11,4 34 19 43 23 W 1025,5 0,2 0 1,6
15.01.2018 19:00:00 11,9 11,1 27 15 43 23 SW 1025,5 0,2 0 -
15.01.2018 18:00:00 11,5 10,8 34 18 46 25 SW 1025,4 0,1 0 3,8
15.01.2018 17:00:00 11,1 10,3 38 20 51 27 SW 1025,4 0,2 0 3,2
15.01.2018 16:00:00 10,7 9,8 38 20 53 29 SW 1025,3 0,1 0 1,2
15.01.2018 15:00:00 10,3 9,2 39 21 54 29 SW 1025,5 4,7 0 0,0
15.01.2018 14:00:00 10,6 8,7 38 20 51 28 SW 1026,1 10 0 0,0
15.01.2018 13:00:00 11,0 8,8 36 19 45 25 SW 1027,0 18 0 -
15.01.2018 12:00:00 10,1 9,0 31 17 47 26 SW 1027,4 20 0 0,0
15.01.2018 11:00:00 8,8 7,8 29 16 43 23 SSW 1027,0 6 0 0,0
15.01.2018 10:00:00 8,6 7,7 27 15 41 22 S - - 0 0,0
15.01.2018 09:00:00 8,3 7,4 23 13 37 20 S 1026,2 4,2 0 0,0
15.01.2018 08:00:00 8,0 7,0 20 11 30 16 S 1025,8 3,3 0 0,0
15.01.2018 07:00:00 7,8 6,5 19 10 28 15 S 1026,0 9 0 -
15.01.2018 06:00:00 7,9 6,7 16 9 27 15 S 1025,6 9 0 0,0
15.01.2018 05:00:00 7,7 6,5 16 9 24 13 S 1025,4 7 0 0,0
15.01.2018 04:00:00 7,5 5,9 16 8 23 13 SSW 1025,6 10 0 0,0
15.01.2018 03:00:00 7,5 5,8 15 8 22 12 S 1025,3 10 0 0,0
15.01.2018 02:00:00 7,5 5,5 11 6 16 9 S 1025,6 11 0 0,0
15.01.2018 01:00:00 7,4 5,3 5 3 8 4 S 1025,9 14 0 -
15.01.2018 00:00:00 7,5 5,1 4 2 11 6 SSW 1025,7 8 0 0,0
14.01.2018 23:00:00 7,6 5,3 9 5 12 6 NNW 1025,6 10 0 0,0
14.01.2018 22:00:00 7,6 5,5 10 5 12 7 N 1025,0 12 0 0,0
14.01.2018 21:00:00 7,6 5,3 6 4 9 5 NNW 1024,3 6 0 0,0
14.01.2018 20:00:00 7,4 4,8 6 4 8 4 SE 1023,3 19 0 0,0
14.01.2018 19:00:00 8,2 5,1 4 2 11 6 SSW 1022,9 20 21 -
14.01.2018 18:00:00 10,0 6,4 7 4 16 8 WSW 1021,8 20 55 0,0
14.01.2018 17:00:00 10,9 7,3 10 6 20 11 SSW 1020,9 18 53 0,0
14.01.2018 16:00:00 10,8 7,4 14 8 24 13 SSW 1020,4 14 60 0,0
14.01.2018 15:00:00 10,9 8,0 14 7 29 16 S 1020,5 18 48 0,0
14.01.2018 14:00:00 9,4 7,7 13 7 25 14 S 1020,7 16 14 0,0
14.01.2018 13:00:00 8,8 7,1 18 10 26 14 SSE 1021,0 13 25 -
14.01.2018 12:00:00 8,0 7,0 12 7 23 13 SE 1020,9 10 22 0,0
14.01.2018 11:00:00 6,9 5,8 16 8 29 15 SE 1020,4 11 0 0,2
14.01.2018 10:00:00 6,7 5,6 9 5 19 10 SE 1020,2 2,3 0 1,8
14.01.2018 09:00:00 6,5 5,3 18 10 24 13 SE 1019,5 3,4 0 0,8
14.01.2018 08:00:00 6,3 5,0 11 6 22 12 E 1019,0 17 0 0,2
14.01.2018 07:00:00 7,0 5,3 9 5 30 16 NNW 1018,9 10 0 -
14.01.2018 06:00:00 7,5 3,9 6 3 31 17 W 1018,6 10 0 0,2
14.01.2018 05:00:00 8,0 5,3 13 7 30 16 WNW 1018,9 8 0 0,2
14.01.2018 04:00:00 8,1 4,6 13 7 33 18 NW 1018,6 12 0 0,6
14.01.2018 03:00:00 8,0 2,9 15 8 40 22 N 1018,4 8 0 0,0
14.01.2018 02:00:00 8,2 3,9 11 6 27 14 NW 1018,7 13 0 0,0
14.01.2018 01:00:00 7,7 3,9 13 7 43 23 NNW 1019,0 8 0 -
14.01.2018 00:00:00 8,3 4,5 13 7 32 17 NNW 1018,6 7 0 0,0
13.01.2018 23:00:00 8,3 4,1 18 10 37 20 N 1018,3 8 0 0,0
13.01.2018 22:00:00 8,2 5,5 10 5 44 24 NNW 1017,9 7 0 0,0
13.01.2018 21:00:00 7,9 5,3 19 11 45 24 NW 1017,3 19 0 0,4
13.01.2018 20:00:00 7,9 5,1 15 8 38 20 WNW 1017,2 13 0 0,2
13.01.2018 19:00:00 8,1 4,6 18 10 41 22 NW 1016,8 5 5 -
13.01.2018 18:00:00 8,3 3,8 21 11 58 32 WNW 1016,0 10 9 0,0
13.01.2018 17:00:00 10,1 4,6 33 18 45 25 W 1015,5 20 35 0,0
13.01.2018 16:00:00 9,6 5,5 24 13 44 24 WNW 1015,2 12 10 0,0
13.01.2018 15:00:00 11,0 7,0 10 6 16 9 WSW 1015,3 19 53 0,0
13.01.2018 14:00:00 9,2 6,8 8 4 37 20 WNW 1015,6 11 0 0,2
13.01.2018 13:00:00 9,9 7,1 22 12 38 21 W 1015,8 6 34 -
13.01.2018 12:00:00 10,0 6,5 15 8 25 14 WNW 1016,2 13 40 0,0
13.01.2018 11:00:00 9,6 6,5 14 7 24 13 NW 1016,0 7 24 0,0
13.01.2018 10:00:00 9,4 7,0 15 8 27 15 NW 1015,4 6 0 0,0
13.01.2018 09:00:00 9,0 5,0 18 10 39 21 NNW 1015,0 18 0 0,4
13.01.2018 08:00:00 9,3 6,7 11 6 30 16 NW 1014,5 10 0 0,0
13.01.2018 07:00:00 9,4 7,7 16 8 26 14 NW 1013,9 8 0 -
13.01.2018 06:00:00 9,0 8,0 8 5 18 10 SSW 1014,2 5 0 0,0
13.01.2018 05:00:00 8,8 7,6 9 5 17 9 SW 1014,4 8 0 0,0
13.01.2018 04:00:00 8,7 7,8 12 6 27 14 WNW 1014,3 19 0 1,4
13.01.2018 03:00:00 8,0 7,3 21 11 32 17 N 1014,3 6 0 2,6
13.01.2018 02:00:00 9,4 8,7 9 5 41 22 WSW 1014,9 0,1 0 1,8
13.01.2018 01:00:00 9,9 8,9 29 15 84 46 NW 1014,9 3,4 0 -
13.01.2018 00:00:00 9,7 8,8 42 23 90 49 S 1013,6 3,1 0 0,4
12.01.2018 23:00:00 9,8 8,8 50 27 89 48 S 1014,0 3,1 0 1,6
12.01.2018 22:00:00 9,8 8,5 45 24 82 45 S 1014,8 3,8 0 1,6
12.01.2018 21:00:00 10,1 8,5 42 23 75 40 S 1015,8 3,5 0 0,4
12.01.2018 20:00:00 10,4 8,1 40 22 76 41 S 1016,0 8 0 0,0
12.01.2018 19:00:00 10,3 8,1 40 22 85 46 S 1016,5 9 0 -
12.01.2018 18:00:00 10,1 7,6 36 20 74 40 S 1017,3 9 0 0,0
12.01.2018 17:00:00 10,1 7,7 38 21 69 38 S 1018,0 9 0 0,0
12.01.2018 16:00:00 10,2 7,3 35 19 73 40 S 1018,5 9 0 0,0
12.01.2018 15:00:00 10,1 6,4 35 19 72 39 S 1019,7 12 9 0,0
12.01.2018 14:00:00 10,7 6,7 34 18 64 35 S 1021,0 11 17 0,0
12.01.2018 13:00:00 9,5 5,6 36 19 61 33 S 1022,3 13 10 -
12.01.2018 12:00:00 9,0 5,3 33 18 55 30 S 1023,2 12 0 0,0
12.01.2018 11:00:00 8,8 5,3 29 16 58 32 S 1023,3 10 0 0,0
12.01.2018 10:00:00 8,4 5,0 28 15 51 28 S 1023,1 11 0 0,0
12.01.2018 09:00:00 8,1 4,5 29 16 49 26 S 1023,5 13 0 0,0
12.01.2018 08:00:00 8,0 4,5 29 16 52 28 S 1023,8 11 0 0,0
12.01.2018 07:00:00 8,1 4,1 30 16 48 26 S 1023,7 13 0 -

tt = temperature
td = dewpoint
ff = wind speed
fx = gusts
dd = wind direction
ppp = reduced air pressure
vv = visibility
sd = sunshine duration
rr = precipitation

Next stations